Header for Extended Forecast Station List Page

Search by: ID | Name | Date | Parm | Value | Avg | % Avg
Sort by: ID | Name | Date | Parm | Value | Avg | % Avg

Enter search or view all records.

Click on id for station plot
#IDNameDateParmValueAvg% Avg
0ABOM8CLARK FORK-ABOVE MISSOULA02-22-2021DISCHARGE (KAF)12281189103
1AFRI1SNAKE-AMERICAN FALLS RESERVOIR02-22-2021INFLOW (KAF)2088234789
2ALFW1PEND OREILLE-ALBENI FALLS DAM02-22-2021INFLOW (KAF)8681968990
3ALPW4SNAKE-NEAR ALPINE02-22-2021DISCHARGE (KAF)1162134886
4ANAW1SNAKE-NEAR ANATONE02-22-2021DISCHARGE (KAF)90201271671
5ANTI1HENRYS FORK-AT ST. ANTHONY02-22-2021DISCHARGE (KAF)52460986
6ARAI1SF BOISE-ANDERSON RANCH DAM02-22-2021INFLOW (KAF)34245375
7ARDW1ENTIAT-NEAR ARDENVOIR02-22-2021DISCHARGE (KAF)182147123
8BELM8CLARK FORK-BELOW MISSOULA02-22-2021DISCHARGE (KAF)22582201103
9BERO3MALHEUR-AGENCY VALLEY DAM02-22-2021INFLOW (KAF)365269
10BFEI1KOOTENAI-AT BONNERS FERRY02-22-2021STAGE (FT)MMM
11BFTI1SNAKE-NEAR BLACKFOOT02-22-2021DISCHARGE (KAF)1517167091
12BIGI1BOISE-AT GLENWOOD BRIDGE02-22-2021DISCHARGE (KAF)35636099
13BITM8BITTERROOT-NEAR MISSOULA02-22-2021DISCHARGE (KAF)1029987104
14BONM8BLACKFOOT-NEAR BONNER02-22-2021DISCHARGE (KAF)696653106
15BONO3COLUMBIA-BONNEVILLE DAM02-22-2021INFLOW (KAF)521515724191
16BRNI1SNAKE-BROWNLEE DAM02-22-2021INFLOW (KAF)4239582973
17BUDW1BUMPING-BUMPING LAKE DAM02-22-2021INFLOW (KAF)12097124
18BULO3BULLY CREEK-BULLY CREEK DAM02-22-2021INFLOW (KAF)168198
19CABI1CLARK FORK-CABINET GORGE DAM02-22-2021INFLOW (KAF)7250804790
20CFMM8FLATHEAD-AT COLUMBIA FALLS02-22-2021DISCHARGE (KAF)33523347100
21CHDW1CHELAN-LAKE CHELAN DAM02-22-2021INFLOW (KAF)852739115
22CHEI1FALL RIVER-NEAR CHESTER02-22-2021DISCHARGE (KAF)26829790
23CHJW1COLUMBIA-CHIEF JOSEPH DAM02-22-2021INFLOW (KAF)267822824895
24CIBW1COLUMBIA-AT INTL BOUNDARY02-22-2021DISCHARGE (KAF)23861MM
25CLFW1NACHES-NEAR CLIFFDEL02-22-2021DISCHARGE (KAF)375327115
26CLUW1CLE ELUM-CLE ELUM LAKE02-22-2021INFLOW (KAF)414325127
27COEI1COEUR D ALENE-COEUR D ALENE LAKE02-22-2021INFLOW (KAF)29022829103
28CSDI1NF PAYETTE-CASCADE DAM02-22-2021INFLOW (KAF)42646392
29DEDI1DEADWOOD-NEAR LOWMAN02-22-2021INFLOW (KAF)9111182
30DLGM8CLARK FORK-AT DEER LODGE02-22-2021DISCHARGE (KAF)8484100
31DRMM8CLARK FORK-NR DRUMMOND02-22-2021DISCHARGE (KAF)235MM
32DWRI1NF CLEARWATER-DWORSHAK DAM02-22-2021INFLOW (KAF)28182604108
33EASW1YAKIMA-AT EASTON02-22-2021DISCHARGE (KAF)135100135
34EMMI1PAYETTE-NEAR EMMETT02-22-2021DISCHARGE (KAF)879114577
35FCFM8NF FLATHEAD-NEAR COLUMBIA FALLS02-22-2021DISCHARGE (KAF)1053121986
36GCDW1COLUMBIA-GRAND COULEE DAM02-22-2021INFLOW (KAF)282493165089
37GIBO3UMATILLA-NEAR GIBBON02-22-2021DISCHARGE (KAF)13483163
38HALI1BIG WOOD-AT HAILEY02-22-2021DISCHARGE (KAF)8717250
39HEII1SNAKE-NEAR HEISE02-22-2021DISCHARGE (KAF)21541999108
40HHWM8SF FLATHEAD-HUNGRY HORSE DAM02-22-2021INFLOW (KAF)15921584100
41HODO3HOOD-NEAR TUCKER BRIDGE02-22-2021DISCHARGE (KAF)319270118
42HOPI1PEND OREILLE-PEND OREILLE LAKE NR HOPE02-22-2021LAKE ELEVATION (FT)MMM
43HOTI1BRUNEAU-NEAR HOT SPRINGS02-22-2021DISCHARGE (KAF)10317060
44HWRI1BIG LOST-AT HOWELL RANCH NEAR CHILLY02-22-2021DISCHARGE (KAF)6310759
45IHDW1SNAKE-ICE HARBOR DAM02-22-2021INFLOW (KAF)159751938182
46IPDI1HENRYS FORK-ISLAND PARK DAM02-22-2021INFLOW (KAF)16218190
47JDAO3COLUMBIA-JOHN DAY DAM02-22-2021INFLOW (KAF)505805783987
48JKSW4SNAKE-NEAR JACKSON02-22-2021DISCHARGE (KAF)890102787
49JLKW4SNAKE-JACKSON LAKE AT DAM02-22-2021INFLOW (KAF)46956383
50KADW1KACHESS-KACHESS DAM02-22-2021INFLOW (KAF)131102129
51KEDW1YAKIMA-KEECHELUS LAKE02-22-2021INFLOW (KAF)147107137
52KERM8FLATHEAD-SELI’Š KSANKA QLISPE’ DAM02-22-2021INFLOW (KAF)3863422791
53KIOW1YAKIMA-AT KIONA02-22-2021DISCHARGE (KAF)11281021111
54LAUW1KETTLE-AT LAURIER02-22-2021DISCHARGE (KAF)1344149090
55LEOI1KOOTENAI-AT LEONIA02-22-2021DISCHARGE (KAF)46293933118
56LGDW1SNAKE-LOWER GRANITE DAM02-22-2021INFLOW (KAF)157911927282
57LGSW1SNAKE-LITTLE GOOSE DAM02-22-2021INFLOW (KAF)157911930482
58LLKW1SPOKANE-AT LONGLAKE02-22-2021INFLOW (KAF)3023339989
59LMNW1SNAKE-LOWER MONUMENTAL DAM02-22-2021INFLOW (KAF)159751950982
60LUCI1BOISE-LUCKY PEAK DAM02-22-2021INFLOW (KAF)1029MM
61LWRI1LITTLE WOOD-LITTLE WOOD DAM02-22-2021INFLOW (KAF)336948
62LYDM8KOOTENAI-LIBBY DAM02-22-2021INFLOW (KAF)3453388689
63MACI1BIG LOST-MACKAY RESERVOIR NEAR MACKAY02-22-2021INFLOW (KAF)5810954
64MAGI1BIG WOOD-MAGIC DAM02-22-2021INFLOW (KAF)6921732
65MCDW1COLUMBIA-MCNARY DAM02-22-2021INFLOW (KAF)481385525887
66MILI1SNAKE-AT MILNER02-22-2021DISCHARGE (KAF)M631M
67MODO3DESCHUTES-AT MOODY NR BIGGS02-22-2021DISCHARGE (KAF)1423153393
68MONO3NF JOHN DAY-AT MONUMENT02-22-2021DISCHARGE (KAF)660627105
69MYKO3MCKAY CREEK-NEAR PILOT ROCK02-22-2021DISCHARGE (KAF)4035115
70NACW1NACHES-NEAR NACHES02-22-2021DISCHARGE (KAF)557420133
71NOXM8CLARK FORK-NOXON RAPIDS DAM02-22-2021INFLOW (KAF)6567766686
72ORFI1CLEARWATER-AT OROFINO02-22-2021DISCHARGE (KAF)44894214107
73OWYO3OWYHEE-OWYHEE DAM02-22-2021INFLOW (KAF)28236178
74PARI1BOISE-NEAR PARMA02-22-2021DISCHARGE (KAF)40942297
75PARW1YAKIMA-NEAR PARKER02-22-2021DISCHARGE (KAF)812637127
76PATW1METHOW-NEAR PATEROS02-22-2021DISCHARGE (KAF)878670131
77PDTO3UMATILLA-AT PENDLETON02-22-2021DISCHARGE (KAF)283184154
78PESW1WENATCHEE-AT PESHASTIN02-22-2021DISCHARGE (KAF)12641126112
79PIHI1PORTNEUF-AT POCATELLO02-22-2021DISCHARGE (KAF)6110061
80PITW1KLICKITAT-NEAR PITT02-22-2021DISCHARGE (KAF)52053298
81PLDI1SF SNAKE-PALISADES DAM02-22-2021INFLOW (KAF)1778206286
82PRTI1PRIEST-NEAR PRIEST RIVER02-22-2021DISCHARGE (KAF)759727104
83PRWW1COLUMBIA-PRIEST RAPIDS DAM02-22-2021INFLOW (KAF)309863375292
84RCCM8ROCK CREEK-NEAR CLINTON02-22-2021DISCHARGE (KAF)253199127
85REXI1HENRYS FORK-AT REXBURG02-22-2021DISCHARGE (KAF)59471383
86RIDI1WILLOW CREEK-RIRIE DAM02-22-2021INFLOW (KAF)404391
87RILW1TIETON-RIMROCK LAKE NEAR RIMROCK02-22-2021INFLOW (KAF)188161117
88RRHW1COLUMBIA-ROCKY REACH DAM02-22-2021INFLOW (KAF)297253065897
89SATI1ST MARIES-NEAR SANTA02-22-2021DISCHARGE (KAF)171151113
90SERO3JOHN DAY-AT SERVICE CK02-22-2021DISCHARGE (KAF)86990296
91SHYI1SNAKE-NEAR SHELLEY02-22-2021DISCHARGE (KAF)1865196595
92SIFI1SNAKE-AB EAGLE ROCK NR IDAHO FALLS02-22-2021DISCHARGE (KAF)20031988101
93SJMI1ST JOE-AT ST MARIES02-22-2021STAGE (FT)MMM
94SNAI1SNAKE-AT BLACKFOOT02-22-2021DISCHARGE (KAF)1558169692
95SPDI1CLEARWATER-AT SPALDING02-22-2021DISCHARGE (KAF)67716553103
96SPOW1SPOKANE-AT SPOKANE02-22-2021DISCHARGE (KAF)2737MM
97SRGM8CLARK FORK-AT ST REGIS02-22-2021DISCHARGE (KAF)2896299097
98STRM8ST. REGIS-NEAR ST. REGIS02-22-2021DISCHARGE (KAF)22323993
99SWAI1SNAKE-BELOW SWAN FALLS02-22-2021DISCHARGE (KAF)1695268963
100TCHW1WALLA WALLA-NEAR TOUCHET02-22-2021DISCHARGE (KAF)228185123
101TDAO3COLUMBIA-THE DALLES DAM02-22-2021INFLOW (KAF)509855497293
102TEAI1TETON-NEAR ST. ANTHONY02-22-2021DISCHARGE (KAF)25426396
103TNAW1TEANAWAY-BELOW FORKS02-22-2021DISCHARGE (KAF)203133153
104TONW1OKANOGAN-NEAR TONASKET02-22-2021DISCHARGE (KAF)13321197111
105TRYO3GRANDE RONDE-TROY02-22-2021DISCHARGE (KAF)16511249132
106UMAO3UMATILLA-NEAR UMATILLA02-22-2021DISCHARGE (KAF)253142178
107UMTW1YAKIMA-AT UMTANUM02-22-2021DISCHARGE (KAF)753644117
108UNDW1WHITE SALMON-NEAR UNDERWOOD02-22-2021DISCHARGE (KAF)35335799
109WANW1COLUMBIA-WANAPUM DAM02-22-2021INFLOW (KAF)309933316593
110WEII1SNAKE-AT WEISER02-22-2021DISCHARGE (KAF)3683539068
111WELW1COLUMBIA-WELLS DAM02-22-2021INFLOW (KAF)289583021496
112WGCM8MF FLATHEAD-NEAR WEST GLACIER02-22-2021DISCHARGE (KAF)1176119199
113WHBI1SALMON-AT WHITEBIRD02-22-2021DISCHARGE (KAF)3527461776
114WRMO3MALHEUR-WARM SPRINGS DAM02-22-2021INFLOW (KAF)636991
115WSRI1WEISER-NEAR WEISER02-22-2021DISCHARGE (KAF)43343899